Home   Weather   Livonia   Past weeks

Flag for USA Past Weather in Livonia, Michigan, USA — Yesterday and Last 2 Weeks

Now
70 °F

Mostly cloudy.


Feels Like: 73 °F
Forecast: 65 / 80 °F
Wind: 15 mph from Northeast

Location: Detroit Metropolitan Wayne County Airport

Current Time: Jul 28, 2017 at 11:06:28 am

Latest Report: Jul 28, 2017 at 9:53 am


Visibility: 10 mi

Pressure: 29.93 "Hg

Humidity: 73%

Dew Point: 61 °F

Location of LivoniaLocation

Past Weather in Livonia — Graph

°F

Livonia Temperature Yesterday

Maximum temperature yesterday: 87 °F (at 1:53 pm)
Minimum temperature yesterday: 69 °F (at 3:53 am)
Average temperature yesterday: 77 °F

High & Low Weather Summary for the Past Weeks

 TemperatureHumidityPressure
High89 °F (Jul 19, 1:53 pm)96% (Jul 14, 4:53 am)30.22 "Hg (Jul 14, 4:53 am)
Low56 °F (Jul 25, 5:53 am)42% (Jul 17, 5:53 pm)29.71 "Hg (Jul 22, 4:53 pm)
Average75 °F72%29.98 "Hg
* Reported Jul 13 8:53 am — Jul 28 8:53 am, Livonia. Weather by CustomWeather, © 2017

Note: Actual official high and low records may vary slightly from our data, if they occured in-between our weather recording intervals... More about our weather records

Advertising

Livonia Weather History for the Previous 24 Hours

Scroll right to see more
 ConditionsComfort  
Time TempWeatherWind HumidityBarometerVisibility
8:53 am
Fri, Jul 28
68 °FMostly cloudy.12 mph78%29.93 "Hg10 mi
7:53 am65 °FMostly cloudy.7 mph87%29.93 "Hg10 mi
6:53 am64 °FMostly cloudy.7 mph90%29.92 "Hg10 mi
5:53 am65 °FOvercast.8 mph87%29.92 "Hg10 mi
4:53 am65 °FPassing clouds.6 mph87%29.92 "Hg10 mi
3:53 am65 °FPassing clouds.7 mph85%29.92 "Hg10 mi
2:53 am66 °FPassing clouds.6 mph81%29.93 "Hg10 mi
1:53 am67 °FPassing clouds.8 mph76%29.92 "Hg10 mi
12:53 am69 °FPartly cloudy.9 mph70%29.93 "Hg10 mi
11:53 pm
Thu, Jul 27
71 °FPassing clouds.10 mph66%29.93 "Hg10 mi
10:53 pm74 °FPassing clouds.8 mph60%29.92 "Hg10 mi
9:53 pm74 °FPassing clouds.8 mph62%29.92 "Hg10 mi
8:53 pm77 °FScattered clouds.13 mph64%29.90 "Hg10 mi
7:53 pm79 °FBroken clouds.14 mph67%29.89 "Hg10 mi
6:53 pm82 °FMostly cloudy.9 mph55%29.87 "Hg10 mi
5:53 pm85 °FBroken clouds.8 mph50%29.87 "Hg10 mi
4:53 pm86 °FBroken clouds.6 mph49%29.88 "Hg10 mi
3:53 pm85 °FBroken clouds.10 mph53%29.88 "Hg10 mi
2:53 pm84 °FBroken clouds.6 mph53%29.89 "Hg10 mi
1:53 pm87 °FBroken clouds.3 mph46%29.89 "Hg10 mi
12:53 pm84 °FPartly sunny.7 mph51%29.90 "Hg10 mi
11:53 am83 °FBroken clouds.5 mph55%29.91 "Hg10 mi
Weather by CustomWeather, © 2017

See weather overviewHow to use our weather pages